sat.trackr.live / text

‹ back to catalog

STARLINK-5663

NORAD 55347 · 2023-013S

PAYLOAD ACTIVE UNKNOWN

§ Identity

Operator
Country
US
Launch date
2023-01-26
Launch site
AFETR
Launch vehicle
Mass (kg)
RCS (m²)

Purposes: comms

External: N2YO · Heavens-Above · Gunter

§ Orbital elements

Epoch: 2026-05-24T23:18:38.439072Z

Period
94.27 min
Inclination
43.0041°
Eccentricity
0.0001673
Mean motion
15.27574898 rev/d
Perigee alt
481.9 km
Apogee alt
484.2 km
Semi-major
6,861.2 km
B*
2.8581e-7
RAAN
232.2744°
Arg perigee
269.3887°
Mean anomaly
90.6773°
Rev number
18,334

§ Raw data

STARLINK-56631 55347U 23013S   26144.97127823 -.00000254  00000+0  28581-6 0  99902 55347  43.0041 232.2744 0001673 269.3887  90.6773 15.27574898183349

JSON: /api/v1/satellites/55347 · /tle

For live sub-satellite position, see the globe view (requires WebGL).

§ Visibility from observer

Set your observer location to see the next 7 days of passes ≥ 10°. The values pass through the URL so the page stays shareable.

No JS? Fill the form by hand. The geolocation button needs JavaScript.